Weather History for Pompano Beach, FL

Change the Weather History Date:

Saturday, August 3, 2013

  Actual Average Record
Temperature  
Mean Temperature 82 °F -  
Max Temperature 89 °F 92 °F 98 °F (1989)
Min Temperature 75 °F 74 °F 67 °F (1949)
Cooling Degree Days 17    
Growing Degree Days 32 (Base 50)    
Moisture  
Dew Point 75 °F    
Average Humidity 79    
Maximum Humidity 85    
Minimum Humidity 63    
Precipitation  
Precipitation 0.07 in - - ()
Sea Level Pressure  
Sea Level Pressure 30.10 in    
Wind  
Wind Speed 4 mph (SSE)    
Max Wind Speed 22 mph    
Max Gust Speed 32 mph    
Visibility 9 miles    
Events Rain , Thunderstorm    
Averages and records for this station are not official NWS values.
T = Trace of Precipitation, MM = Missing Value Source: NWS Daily Summary

Daily Weather History Graph

Daily Weather History Graph

Search for Another Location

Airport:

Trip Planner

Search our weather history database for the weather conditions in past years. The results will help you decide how hot, cold, wet, or windy it might be!

Date:

Astronomy

Aug. 03, 2013 Rise Set
Actual Time 6:47 AM EDT 8:05 PM EDT
Civil Twilight 6:22 AM EDT 8:30 PM EDT
Nautical Twilight 5:52 AM EDT 8:59 PM EDT
Astronomical Twilight 5:22 AM EDT 9:30 PM EDT
Moon 3:59 AM EDT (8/3) 5:44 PM EDT (8/3)
Length of Visible Light 14h 08m
Length of Day
13h 18m
Waning Crescent, 9% of the Moon is Illuminated
Aug 3
Waning Crescent
Aug 6
New
Aug 14
First Quarter
Aug 20
Full
Aug 28
Last Quarter

Hourly Weather History & Observations

Time (EDT) Temp. Heat Index Dew Point Humidity Pressure Visibility Wind Dir Wind Speed Gust Speed Precip Events Conditions
12:53 AM 82.0 °F 89.4 °F 75.9 °F 82% 30.06 in 10.0 mi Calm Calm - N/A   Unknown
1:53 AM 82.0 °F 89.4 °F 75.9 °F 82% 30.07 in 10.0 mi South 3.5 mph - N/A   Unknown
2:53 AM 82.0 °F 89.4 °F 75.9 °F 82% 30.07 in 10.0 mi Calm Calm - N/A   Unknown
3:53 AM 82.9 °F 90.8 °F 75.9 °F 79% 30.05 in 10.0 mi SW 3.5 mph - N/A   Unknown
4:53 AM 82.0 °F 90.2 °F 77.0 °F 85% 30.05 in 10.0 mi South 3.5 mph - N/A   Unknown
5:53 AM 82.0 °F 87.4 °F 73.0 °F 74% 30.05 in 10.0 mi Calm Calm - N/A   Unknown
6:53 AM 81.0 °F 87.3 °F 75.9 °F 85% 30.08 in 10.0 mi Calm Calm - N/A   Unknown
7:39 AM 82.4 °F 90.9 °F 77.0 °F 84% 30.08 in 10.0 mi Calm Calm - N/A Thunderstorm Unknown
7:49 AM 82.4 °F 90.9 °F 77.0 °F 84% 30.09 in 10.0 mi East 4.6 mph - N/A   Unknown
7:53 AM 82.9 °F 91.8 °F 77.0 °F 82% 30.09 in 10.0 mi ESE 5.8 mph - N/A   Unknown
8:53 AM 82.9 °F 88.0 °F 72.0 °F 69% 30.11 in 10.0 mi SE 9.2 mph - N/A   Mostly Cloudy
9:53 AM 84.0 °F 90.2 °F 73.0 °F 69% 30.12 in 10.0 mi SSE 8.1 mph - N/A   Mostly Cloudy
10:53 AM 84.9 °F 95.3 °F 77.0 °F 77% 30.12 in 10.0 mi ESE 5.8 mph - N/A   Mostly Cloudy
11:53 AM 86.0 °F 96.0 °F 75.9 °F 72% 30.12 in 10.0 mi ESE 8.1 mph - N/A   Mostly Cloudy
12:53 PM 88.0 °F 100.2 °F 77.0 °F 70% 30.12 in 10.0 mi SSE 10.4 mph - N/A   Mostly Cloudy
1:53 PM 89.1 °F 99.1 °F 75.0 °F 63% 30.11 in 10.0 mi SSE 8.1 mph - N/A   Mostly Cloudy
2:27 PM 89.6 °F 102.2 °F 77.0 °F 66% 30.11 in 10.0 mi SSE 11.5 mph - N/A Thunderstorm Mostly Cloudy
2:53 PM 80.1 °F 83.8 °F 72.0 °F 76% 30.14 in 5.0 mi West 21.9 mph 32.2 mph N/A Rain , Thunderstorm Thunderstorms and Rain
2:56 PM 78.8 °F - 73.4 °F 83% 30.13 in 2.5 mi West 16.1 mph 32.2 mph N/A Rain , Thunderstorm Thunderstorms and Rain
3:23 PM 77.0 °F - 71.6 °F 83% 30.14 in 4.0 mi NNW 6.9 mph - N/A Rain , Thunderstorm Thunderstorms and Rain
3:53 PM 75.0 °F - 70.0 °F 84% 30.13 in 10.0 mi NNW 3.5 mph - N/A Rain , Thunderstorm Light Thunderstorms and Rain
4:53 PM 77.0 °F - 72.0 °F 84% 30.12 in 7.0 mi NW 5.8 mph - 0.07 in Rain , Thunderstorm Light Thunderstorms and Rain
5:53 PM 78.1 °F - 73.0 °F 84% 30.11 in 10.0 mi Calm Calm - N/A Rain Light Rain
6:53 PM 79.0 °F - 73.0 °F 82% 30.09 in 10.0 mi Calm Calm - N/A Rain Light Rain
7:53 PM 80.1 °F 84.5 °F 73.9 °F 81% 30.11 in 10.0 mi Calm Calm - 0.00 in Rain Light Rain
8:53 PM 79.0 °F - 73.9 °F 84% 30.11 in 10.0 mi Calm Calm - N/A   Overcast
9:53 PM 80.1 °F 85.1 °F 75.0 °F 85% 30.12 in 10.0 mi Calm Calm - N/A   Overcast
10:53 PM 80.1 °F 85.1 °F 75.0 °F 85% 30.14 in 10.0 mi Calm Calm - N/A   Unknown
11:53 PM 80.1 °F 85.1 °F 75.0 °F 85% 30.13 in 10.0 mi Calm Calm - N/A   Unknown